Regional Weather Roundup
Issued by NWS

Home | Current Version | Previous Version | Text Only | Print | Product List | Glossary On
Versions: 1 2 3 4 5 6 7 8 9 10 11 12 13 14 15 16 17 18 19 20 21 22 23 24 25 26 27 28 29 30 31 32 33 34 35 36 37 38 39 40 41 42 43 44 45 46 47 48 49 50
789
ASUS43 KLMK 200502
RWRKY
KENTUCKY REGIONAL WEATHER ROUNDUP
NATIONAL WEATHER SERVICE LOUISVILLE KY
100 AM EDT WED SEP 20 2017

NOTE "FAIR" INDICATES FEW OR NO CLOUDS BELOW 12,000 FEET
WITH NO SIGNIFICANT WEATHER AND/OR OBSTRUCTIONS TO VISIBILITY.

KYZ001>023-026-027-061>063-070>075-200600-
WESTERN AND SOUTH CENTRAL KENTUCKY

CITY           SKY/WX    TMP DP  RH WIND       PRES   REMARKS
PADUCAH        CLEAR     75  69  81 S3        29.91S
HENDERSON      CLEAR     70  68  93 CALM      29.93F
OWENSBORO      CLEAR     71  69  93 S3        29.95S
HOPKINSVILLE   CLEAR     71  68  92 SE3       29.95S
BOWLING GREEN  PTCLDY    68  68 100 CALM      29.97S FOG
GLASGOW        CLEAR    N/A N/A N/A CALM      29.98S
$$

KYZ024-025-028>034-038-045-046-053-200600-
NORTH CENTRAL KENTUCKY

CITY           SKY/WX    TMP DP  RH WIND       PRES   REMARKS
LOUISVILLE/SDF CLEAR     71  68  90 SE8       29.96S
LOUISVILLE/LOU CLEAR     68  68 100 S3        29.97S
FORT KNOX      CLEAR     68  68 100 E3        29.96S FOG
$$

KYZ035>037-039>044-047>052-055>060-089>105-200600-
NORTHEAST KENTUCKY

CITY           SKY/WX    TMP DP  RH WIND       PRES   REMARKS
LEXINGTON      CLEAR     67  65  93 S6        29.99S
COVINGTON      CLEAR     65  65 100 S6        29.97S
FRANKFORT      CLEAR     66  64  93 CALM      29.97S FOG
$$

KYZ054-064>069-076>088-106>120-200600-
SOUTHEAST KENTUCKY

CITY           SKY/WX    TMP DP  RH WIND       PRES   REMARKS
JACKSON        CLOUDY    68  66  93 CALM      30.01R FOG
LONDON         CLEAR     68  64  87 CALM      30.01F
SOMERSET       NOT AVBL
MIDDLESBORO    CLEAR     65  65  99 CALM      30.03S
MONTICELLO     PTCLDY    62  62 100 CALM      30.02F FOG
$$





USA.gov is the U.S. government's official web portal to all federal, state and local government web resources and services.